Time,TemperatureF,DewpointF,PressureIn,WindDirection,WindDirectionDegrees,WindSpeedMPH,WindSpeedGustMPH,Humidity,HourlyPrecipIn,Conditions,Clouds,dailyrainin,SoftwareType,DateUTC
2013-02-22 00:01:00,43.0,42.0,29.86,NW,319,3.0,10.0,95,0.00,,,0.78,,2013-02-22 06:01:00,
2013-02-22 00:11:00,43.0,42.0,29.86,NW,319,3.0,10.0,95,0.00,,,0.78,,2013-02-22 06:11:00,
2013-02-22 00:21:00,43.0,42.0,29.86,NW,307,0.0,5.0,95,0.00,,,0.78,,2013-02-22 06:21:00,
2013-02-22 00:31:00,42.0,40.0,29.85,WNW,282,0.0,5.0,94,0.00,,,0.78,,2013-02-22 06:31:00,
2013-02-22 00:42:00,42.0,40.0,29.85,WNW,282,0.0,5.0,94,0.00,,,0.78,,2013-02-22 06:42:00,
2013-02-22 00:52:00,42.0,40.0,29.86,West,269,1.0,5.0,94,0.00,,,0.78,,2013-02-22 06:52:00,
2013-02-22 01:01:00,41.0,40.0,29.87,West,275,1.0,2.0,95,0.00,,,0.78,,2013-02-22 07:01:00,
2013-02-22 01:11:00,41.0,40.0,29.88,West,275,0.0,4.0,95,0.00,,,0.78,,2013-02-22 07:11:00,
2013-02-22 01:21:00,41.0,40.0,29.88,West,275,0.0,4.0,95,0.00,,,0.78,,2013-02-22 07:21:00,
2013-02-22 01:31:00,41.0,40.0,29.89,West,265,0.0,6.0,95,0.00,,,0.78,,2013-02-22 07:31:00,
2013-02-22 01:42:00,40.0,39.0,29.89,WNW,286,0.0,6.0,95,0.00,,,0.78,,2013-02-22 07:42:00,
2013-02-22 01:52:00,40.0,39.0,29.89,WNW,286,0.0,6.0,95,0.00,,,0.78,,2013-02-22 07:52:00,
2013-02-22 02:01:00,40.0,39.0,29.89,NW,318,0.0,0.0,95,0.00,,,0.78,,2013-02-22 08:01:00,
2013-02-22 02:11:00,40.0,39.0,29.89,NW,318,0.0,0.0,95,0.00,,,0.78,,2013-02-22 08:11:00,
2013-02-22 02:21:00,40.0,39.0,29.89,WSW,252,0.0,5.0,95,0.00,,,0.78,,2013-02-22 08:21:00,
2013-02-22 02:31:00,40.0,39.0,29.89,SSW,209,0.0,5.0,95,0.00,,,0.78,,2013-02-22 08:31:00,
2013-02-22 02:41:00,40.0,39.0,29.89,SSW,209,0.0,5.0,95,0.00,,,0.78,,2013-02-22 08:41:00,
2013-02-22 02:52:00,40.0,39.0,29.89,West,280,0.0,5.0,95,0.00,,,0.78,,2013-02-22 08:52:00,
2013-02-22 03:03:00,40.0,39.0,29.89,SW,223,0.0,6.0,95,0.00,,,0.78,,2013-02-22 09:03:00,
2013-02-22 03:11:00,40.0,39.0,29.90,SSW,207,0.0,4.0,95,0.00,,,0.78,,2013-02-22 09:11:00,
2013-02-22 03:21:00,40.0,39.0,29.90,SSW,207,0.0,4.0,95,0.00,,,0.78,,2013-02-22 09:21:00,
2013-02-22 03:32:00,40.0,39.0,29.90,SSW,213,1.0,5.0,95,0.00,,,0.78,,2013-02-22 09:32:00,
2013-02-22 03:42:00,40.0,39.0,29.90,SSW,213,1.0,5.0,95,0.00,,,0.78,,2013-02-22 09:42:00,
2013-02-22 03:52:00,40.0,39.0,29.90,SSW,213,1.0,5.0,95,0.00,,,0.78,,2013-02-22 09:52:00,
2013-02-22 04:01:00,40.0,39.0,29.90,SSW,213,1.0,5.0,95,0.00,,,0.78,,2013-02-22 10:01:00,
2013-02-22 04:11:00,40.0,39.0,29.90,SSW,213,1.0,5.0,95,0.00,,,0.78,,2013-02-22 10:11:00,
2013-02-22 06:22:00,38.0,37.0,29.95,NW,325,0.0,3.0,96,0.00,,,0.78,,2013-02-22 12:22:00,
2013-02-22 06:32:00,38.0,37.0,29.96,WNW,300,0.0,3.0,96,0.00,,,0.78,,2013-02-22 12:32:00,
2013-02-22 06:42:00,38.0,37.0,29.96,WNW,300,0.0,3.0,96,0.00,,,0.78,,2013-02-22 12:42:00,
2013-02-22 06:52:00,38.0,37.0,29.96,NW,309,1.0,3.0,96,0.00,,,0.78,,2013-02-22 12:52:00,
2013-02-22 07:01:00,37.0,36.0,29.97,NW,319,1.0,4.0,96,0.00,,,0.78,,2013-02-22 13:01:00,
2013-02-22 07:11:00,37.0,36.0,29.97,NW,319,1.0,4.0,96,0.00,,,0.78,,2013-02-22 13:11:00,
2013-02-22 07:22:00,37.0,36.0,29.97,WNW,294,1.0,5.0,96,0.00,,,0.78,,2013-02-22 13:22:00,
2013-02-22 07:32:00,37.0,36.0,29.99,NW,325,0.0,4.0,96,0.00,,,0.78,,2013-02-22 13:32:00,
2013-02-22 07:42:00,37.0,36.0,29.99,NW,325,0.0,4.0,96,0.00,,,0.78,,2013-02-22 13:42:00,
2013-02-22 07:52:00,37.0,36.0,29.99,NW,307,0.0,2.0,96,0.00,,,0.78,,2013-02-22 13:52:00,
2013-02-22 08:01:00,37.0,36.0,30.01,West,279,0.0,4.0,96,0.00,,,0.78,,2013-02-22 14:01:00,
2013-02-22 08:11:00,38.0,37.0,30.02,WNW,298,0.0,5.0,96,0.00,,,0.78,,2013-02-22 14:11:00,
2013-02-22 08:21:00,38.0,37.0,30.02,WNW,298,0.0,5.0,96,0.00,,,0.78,,2013-02-22 14:21:00,
2013-02-22 08:32:00,38.0,37.0,30.03,West,279,4.0,6.0,96,0.00,,,0.78,,2013-02-22 14:32:00,
2013-02-22 08:42:00,38.0,37.0,30.03,WNW,284,3.0,9.0,96,0.00,,,0.78,,2013-02-22 14:42:00,
2013-02-22 08:53:00,38.0,37.0,30.03,WNW,284,3.0,9.0,96,0.00,,,0.78,,2013-02-22 14:53:00,
2013-02-22 09:01:00,38.0,37.0,30.03,North,350,1.0,7.0,96,0.00,,,0.78,,2013-02-22 15:01:00,
2013-02-22 09:11:00,38.0,37.0,30.03,North,350,1.0,7.0,96,0.00,,,0.78,,2013-02-22 15:11:00,
2013-02-22 09:21:00,38.0,37.0,30.03,West,260,0.0,8.0,96,0.00,,,0.78,,2013-02-22 15:21:00,
2013-02-22 09:32:00,38.0,37.0,30.03,WNW,285,2.0,5.0,96,0.00,,,0.78,,2013-02-22 15:32:00,
2013-02-22 09:41:00,38.0,37.0,30.03,WNW,285,2.0,5.0,96,0.00,,,0.78,,2013-02-22 15:41:00,
2013-02-22 09:52:00,38.0,37.0,30.04,WNW,303,4.0,6.0,96,0.00,,,0.78,,2013-02-22 15:52:00,
2013-02-22 10:01:00,38.0,37.0,30.05,WNW,288,0.0,4.0,96,0.00,,,0.78,,2013-02-22 16:01:00,
2013-02-22 10:12:00,39.0,38.0,30.05,WSW,256,0.0,3.0,96,0.00,,,0.78,,2013-02-22 16:12:00,
2013-02-22 10:21:00,39.0,38.0,30.05,WSW,256,0.0,3.0,96,0.00,,,0.78,,2013-02-22 16:21:00,
2013-02-22 10:31:00,39.0,38.0,30.06,WNW,289,3.0,6.0,95,0.00,,,0.78,,2013-02-22 16:31:00,
2013-02-22 10:42:00,39.0,38.0,30.06,WNW,289,3.0,6.0,95,0.00,,,0.78,,2013-02-22 16:42:00,
2013-02-22 10:52:00,39.0,38.0,30.06,WSW,250,0.0,7.0,95,0.00,,,0.78,,2013-02-22 16:52:00,
2013-02-22 11:01:00,39.0,38.0,30.06,West,259,3.0,9.0,95,0.00,,,0.78,,2013-02-22 17:01:00,
2013-02-22 11:11:00,39.0,38.0,30.06,West,259,3.0,9.0,95,0.00,,,0.78,,2013-02-22 17:11:00,
2013-02-22 11:21:00,39.0,37.0,30.06,NW,311,1.0,4.0,94,0.00,,,0.78,,2013-02-22 17:21:00,
2013-02-22 11:31:00,40.0,38.0,30.06,WNW,298,0.0,7.0,93,0.00,,,0.78,,2013-02-22 17:31:00,
2013-02-22 11:42:00,40.0,38.0,30.06,WNW,298,0.0,7.0,93,0.00,,,0.78,,2013-02-22 17:42:00,
2013-02-22 11:52:00,41.0,39.0,30.06,West,267,0.0,4.0,91,0.00,,,0.78,,2013-02-22 17:52:00,
2013-02-22 12:01:00,41.0,38.0,30.04,West,270,0.0,5.0,89,0.00,,,0.78,,2013-02-22 18:01:00,
2013-02-22 12:12:00,42.0,38.0,30.04,NW,322,0.0,5.0,87,0.00,,,0.78,,2013-02-22 18:12:00,
2013-02-22 12:22:00,42.0,38.0,30.04,NW,322,0.0,5.0,87,0.00,,,0.78,,2013-02-22 18:22:00,
2013-02-22 12:32:00,43.0,39.0,30.03,NW,306,2.0,6.0,85,0.00,,,0.78,,2013-02-22 18:32:00,
2013-02-22 12:42:00,43.0,39.0,30.03,NW,306,2.0,6.0,85,0.00,,,0.78,,2013-02-22 18:42:00,
2013-02-22 12:52:00,43.0,38.0,30.03,NW,324,0.0,8.0,84,0.00,,,0.78,,2013-02-22 18:52:00,
2013-02-22 13:01:00,44.0,39.0,30.02,NW,306,3.0,7.0,81,0.00,,,0.64,,2013-02-22 19:01:00,
2013-02-22 13:11:00,45.0,39.0,30.03,SW,217,0.0,5.0,79,0.00,,,0.64,,2013-02-22 19:11:00,
2013-02-22 13:21:00,45.0,39.0,30.03,SW,217,0.0,5.0,79,0.00,,,0.64,,2013-02-22 19:21:00,
2013-02-22 13:31:00,47.0,39.0,30.01,WNW,298,1.0,8.0,75,0.00,,,0.64,,2013-02-22 19:31:00,
2013-02-22 13:41:00,48.0,40.0,30.01,SW,214,0.0,2.0,73,0.00,,,0.64,,2013-02-22 19:41:00,
2013-02-22 13:52:00,48.0,40.0,30.01,SW,214,0.0,2.0,73,0.00,,,0.64,,2013-02-22 19:52:00,
2013-02-22 14:01:00,48.0,38.0,30.00,West,280,6.0,8.0,69,0.00,,,0.35,,2013-02-22 20:01:00,
2013-02-22 14:11:00,48.0,38.0,30.00,West,280,6.0,8.0,69,0.00,,,0.35,,2013-02-22 20:11:00,
2013-02-22 14:21:00,48.0,39.0,30.00,WSW,252,0.0,5.0,71,0.00,,,0.35,,2013-02-22 20:21:00,
2013-02-22 14:31:00,48.0,39.0,29.98,WNW,292,0.0,5.0,71,0.00,,,0.35,,2013-02-22 20:31:00,
2013-02-22 14:41:00,48.0,39.0,29.98,WNW,292,0.0,5.0,71,0.00,,,0.35,,2013-02-22 20:41:00,
2013-02-22 14:52:00,47.0,38.0,29.98,NNE,12,3.0,8.0,72,0.00,,,0.35,,2013-02-22 20:52:00,
2013-02-22 15:01:00,49.0,40.0,29.98,WNW,286,0.0,4.0,70,0.00,,,0.11,,2013-02-22 21:01:00,
2013-02-22 15:11:00,50.0,40.0,29.97,ENE,66,1.0,4.0,68,0.00,,,0.11,,2013-02-22 21:11:00,
2013-02-22 15:21:00,50.0,40.0,29.97,ENE,66,1.0,4.0,68,0.00,,,0.11,,2013-02-22 21:21:00,
2013-02-22 15:32:00,50.0,39.0,29.97,North,360,2.0,5.0,66,0.00,,,0.11,,2013-02-22 21:32:00,
2013-02-22 15:42:00,50.0,39.0,29.97,North,360,2.0,5.0,66,0.00,,,0.11,,2013-02-22 21:42:00,
2013-02-22 15:52:00,50.0,39.0,29.97,ENE,63,0.0,3.0,65,0.00,,,0.11,,2013-02-22 21:52:00,
2013-02-22 16:01:00,49.0,39.0,29.97,NNW,340,2.0,7.0,67,0.00,,,0.08,,2013-02-22 22:01:00,
2013-02-22 16:11:00,49.0,39.0,29.97,NNW,340,2.0,7.0,67,0.00,,,0.08,,2013-02-22 22:11:00,
2013-02-22 16:21:00,50.0,39.0,29.98,North,11,0.0,3.0,65,0.00,,,0.08,,2013-02-22 22:21:00,
2013-02-22 16:31:00,50.0,39.0,29.98,NE,38,0.0,4.0,65,-99.99,,,-99.99,,2013-02-22 22:31:00,
2013-02-22 16:41:00,50.0,39.0,29.98,NE,38,0.0,4.0,65,-99.99,,,-99.99,,2013-02-22 22:41:00,
2013-02-22 16:51:00,50.0,39.0,29.98,NNE,31,0.0,5.0,66,-99.99,,,-99.99,,2013-02-22 22:51:00,
2013-02-22 17:01:00,50.0,39.0,29.99,NNE,27,1.0,3.0,66,-99.99,,,-99.99,,2013-02-22 23:01:00,
2013-02-22 17:11:00,50.0,39.0,29.99,NNE,27,1.0,3.0,66,-99.99,,,-99.99,,2013-02-22 23:11:00,
2013-02-22 17:21:00,49.0,39.0,29.98,NW,317,0.0,2.0,67,-99.99,,,-99.99,,2013-02-22 23:21:00,
2013-02-22 17:31:00,49.0,39.0,29.99,NNE,26,0.0,4.0,68,0.00,,,-99.99,,2013-02-22 23:31:00,
2013-02-22 17:41:00,49.0,39.0,29.99,NNE,26,0.0,4.0,68,0.00,,,-99.99,,2013-02-22 23:41:00,
2013-02-22 17:52:00,49.0,40.0,29.98,NNE,13,0.0,3.0,70,0.00,,,-99.99,,2013-02-22 23:52:00,
2013-02-22 18:01:00,48.0,39.0,29.99,NNE,13,0.0,0.0,71,0.00,,,-99.99,,2013-02-23 00:01:00,
2013-02-22 18:11:00,48.0,40.0,30.00,NNE,12,0.0,0.0,73,0.00,,,-99.99,,2013-02-23 00:11:00,
2013-02-22 18:21:00,48.0,40.0,30.00,NNE,12,0.0,0.0,73,0.00,,,-99.99,,2013-02-23 00:21:00,
2013-02-22 18:32:00,47.0,39.0,30.00,NNE,12,0.0,0.0,75,0.00,,,-99.99,,2013-02-23 00:32:00,
2013-02-22 18:42:00,47.0,39.0,30.00,NNE,12,0.0,0.0,75,0.00,,,-99.99,,2013-02-23 00:42:00,
2013-02-22 18:52:00,47.0,40.0,30.01,NNE,12,0.0,0.0,77,0.00,,,-99.99,,2013-02-23 00:52:00,
2013-02-22 19:01:00,46.0,40.0,30.01,NNE,12,0.0,0.0,78,0.00,,,-99.99,,2013-02-23 01:01:00,
2013-02-22 19:11:00,46.0,40.0,30.01,NNE,12,0.0,0.0,78,0.00,,,-99.99,,2013-02-23 01:11:00,
2013-02-22 19:21:00,45.0,39.0,30.01,NE,49,2.0,7.0,80,0.00,,,-99.99,,2013-02-23 01:21:00,
2013-02-22 19:31:00,45.0,40.0,30.02,North,355,1.0,5.0,81,0.00,,,-99.99,,2013-02-23 01:31:00,
2013-02-22 19:42:00,45.0,40.0,30.02,North,355,1.0,5.0,81,0.00,,,-99.99,,2013-02-23 01:42:00,
2013-02-22 19:52:00,44.0,39.0,30.03,NNE,23,3.0,6.0,81,0.00,,,-99.99,,2013-02-23 01:52:00,
2013-02-22 20:01:00,44.0,39.0,30.03,ENE,78,4.0,9.0,81,0.00,,,-99.99,,2013-02-23 02:01:00,
2013-02-22 20:11:00,43.0,38.0,30.03,NE,47,2.0,6.0,82,0.00,,,0.00,,2013-02-23 02:11:00,
2013-02-22 20:21:00,43.0,38.0,30.03,NE,47,2.0,6.0,82,0.00,,,0.00,,2013-02-23 02:21:00,
2013-02-22 20:31:00,43.0,38.0,30.04,NE,55,4.0,11.0,82,0.00,,,0.00,,2013-02-23 02:31:00,
2013-02-22 20:41:00,43.0,38.0,30.04,NE,55,4.0,11.0,82,0.00,,,0.00,,2013-02-23 02:41:00,
2013-02-22 20:52:00,43.0,38.0,30.03,NE,55,3.0,10.0,82,0.00,,,0.00,,2013-02-23 02:52:00,
2013-02-22 21:01:00,42.0,37.0,30.04,NE,56,4.0,7.0,81,0.00,,,0.00,,2013-02-23 03:01:00,
2013-02-22 21:11:00,42.0,37.0,30.04,NE,56,4.0,7.0,81,0.00,,,0.00,,2013-02-23 03:11:00,
2013-02-22 21:21:00,42.0,37.0,30.04,ENE,59,4.0,8.0,81,0.00,,,0.00,,2013-02-23 03:21:00,
2013-02-22 21:31:00,42.0,37.0,30.05,NE,49,3.0,5.0,81,0.00,,,0.00,,2013-02-23 03:31:00,
2013-02-22 21:41:00,42.0,37.0,30.05,NE,49,3.0,5.0,81,0.00,,,0.00,,2013-02-23 03:41:00,
2013-02-22 21:52:00,42.0,37.0,30.06,NE,53,0.0,4.0,81,0.00,,,0.00,,2013-02-23 03:52:00,
2013-02-22 22:01:00,42.0,37.0,30.05,NE,53,0.0,4.0,82,0.00,,,0.00,,2013-02-23 04:01:00,
2013-02-22 22:11:00,41.0,36.0,30.04,NNE,29,0.0,3.0,82,0.00,,,0.00,,2013-02-23 04:11:00,
2013-02-22 22:21:00,41.0,36.0,30.04,NNE,29,0.0,3.0,82,0.00,,,0.00,,2013-02-23 04:21:00,
2013-02-22 22:31:00,41.0,36.0,30.04,NE,48,4.0,7.0,83,0.00,,,0.00,,2013-02-23 04:31:00,
2013-02-22 22:41:00,41.0,36.0,30.04,NE,48,4.0,7.0,83,0.00,,,0.00,,2013-02-23 04:41:00,
2013-02-22 22:52:00,41.0,36.0,30.04,ENE,58,5.0,8.0,82,0.00,,,0.00,,2013-02-23 04:52:00,
2013-02-22 23:02:00,40.0,35.0,30.03,NE,50,2.0,6.0,82,0.00,,,0.00,,2013-02-23 05:02:00,
2013-02-22 23:12:00,40.0,35.0,30.03,NE,50,2.0,6.0,82,0.00,,,0.00,,2013-02-23 05:12:00,
2013-02-22 23:22:00,39.0,33.0,30.03,NNE,22,7.0,11.0,80,0.00,,,0.00,,2013-02-23 05:22:00,
2013-02-22 23:32:00,39.0,33.0,30.03,East,88,3.0,12.0,80,0.00,,,0.00,,2013-02-23 05:32:00,
2013-02-22 23:41:00,39.0,33.0,30.03,East,88,3.0,12.0,80,0.00,,,0.00,,2013-02-23 05:41:00,
2013-02-22 23:52:00,38.0,33.0,30.04,NE,34,3.0,9.0,81,0.00,,,0.00,,2013-02-23 05:52:00,